owner,sensor,date,latitude,longitude,vertical_datum,mass_concentration_of_oxygen_in_sea_water,qcFlag 
DISL,ioos:station:DISL:KATA:1,2019-03-01T15:30:00Z,30.2583,-88.2131,4.05,4.93,1111122 
DISL,ioos:station:DISL:KATA:1,2019-03-01T16:30:00Z,30.2583,-88.2131,4.149,5.13,1111122 
DISL,ioos:station:DISL:KATA:1,2019-03-01T17:30:00Z,30.2583,-88.2131,4.16,5.02,1111122 
DISL,ioos:station:DISL:KATA:1,2019-03-01T18:30:00Z,30.2583,-88.2131,4.191,5.18,1111122 
DISL,ioos:station:DISL:KATA:1,2019-03-01T19:30:00Z,30.2583,-88.2131,4.247,4.92,1111122 
DISL,ioos:station:DISL:KATA:1,2019-03-01T20:00:00Z,30.2583,-88.2131,4.245,5.35,1111122 
DISL,ioos:station:DISL:KATA:1,2019-03-01T20:30:00Z,30.2583,-88.2131,4.272,5.19,1111122 
DISL,ioos:station:DISL:KATA:1,2019-03-03T18:30:00Z,30.2583,-88.2131,4.203,4.23,1111122 
DISL,ioos:station:DISL:KATA:1,2019-03-03T19:00:00Z,30.2583,-88.2131,4.247,4.14,1111122 
DISL,ioos:station:DISL:KATA:1,2019-03-04T15:30:00Z,30.2583,-88.2131,3.862,8.21,1111122 
DISL,ioos:station:DISL:KATA:1,2019-03-04T16:30:00Z,30.2583,-88.2131,3.901,8.27,1111122 
DISL,ioos:station:DISL:KATA:1,2019-03-04T17:30:00Z,30.2583,-88.2131,3.943,7.42,1111122 
DISL,ioos:station:DISL:KATA:1,2019-03-04T18:30:00Z,30.2583,-88.2131,3.976,7.5,1111122 
DISL,ioos:station:DISL:KATA:1,2019-03-04T19:30:00Z,30.2583,-88.2131,3.988,7.07,1111122 
DISL,ioos:station:DISL:KATA:1,2019-03-04T20:30:00Z,30.2583,-88.2131,3.991,6.05,1111122 
DISL,ioos:station:DISL:KATA:1,2019-03-04T21:30:00Z,30.2583,-88.2131,3.997,6.66,1111122 
DISL,ioos:station:DISL:KATA:1,2019-03-04T22:30:00Z,30.2583,-88.2131,4.003,6.47,1111122 
DISL,ioos:station:DISL:KATA:1,2019-03-04T23:30:00Z,30.2583,-88.2131,4.051,6.84,1111122 
DISL,ioos:station:DISL:KATA:1,2019-03-05T00:30:00Z,30.2583,-88.2131,4.146,7.15,1111122 
DISL,ioos:station:DISL:KATA:1,2019-03-05T01:00:00Z,30.2583,-88.2131,4.157,7.15,1111122 
DISL,ioos:station:DISL:KATA:1,2019-03-05T13:30:00Z,30.2583,-88.2131,3.735,9.06,1111122 
DISL,ioos:station:DISL:KATA:1,2019-03-05T14:30:00Z,30.2583,-88.2131,3.717,9.01,1111122 
DISL,ioos:station:DISL:KATA:1,2019-03-05T15:30:00Z,30.2583,-88.2131,3.729,9.07,1111122 
DISL,ioos:station:DISL:KATA:1,2019-03-05T16:30:00Z,30.2583,-88.2131,3.822,9.12,1111122 
DISL,ioos:station:DISL:KATA:1,2019-03-05T17:30:00Z,30.2583,-88.2131,3.875,9.05,1111122 
DISL,ioos:station:DISL:KATA:1,2019-03-05T18:30:00Z,30.2583,-88.2131,3.924,8.75,1111122 
DISL,ioos:station:DISL:KATA:1,2019-03-05T19:30:00Z,30.2583,-88.2131,3.958,9.08,1111122 
DISL,ioos:station:DISL:KATA:1,2019-03-05T20:30:00Z,30.2583,-88.2131,3.943,9.23,1111122 
DISL,ioos:station:DISL:KATA:1,2019-03-05T22:30:00Z,30.2583,-88.2131,3.914,9.12,1111122 
DISL,ioos:station:DISL:KATA:1,2019-03-05T23:30:00Z,30.2583,-88.2131,3.955,8.69,1111122 
DISL,ioos:station:DISL:KATA:1,2019-03-06T00:30:00Z,30.2583,-88.2131,4.02,8.85,1111122 
DISL,ioos:station:DISL:KATA:1,2019-03-06T01:30:00Z,30.2583,-88.2131,4.069,8.18,1111122 
DISL,ioos:station:DISL:KATA:1,2019-03-06T02:30:00Z,30.2583,-88.2131,4.079,7.64,1111122 
DISL,ioos:station:DISL:KATA:1,2019-03-06T03:00:00Z,30.2583,-88.2131,4.06,8.02,1111122 
DISL,ioos:station:DISL:KATA:1,2019-03-06T13:30:00Z,30.2583,-88.2131,3.594,9.87,1111122 
DISL,ioos:station:DISL:KATA:1,2019-03-06T14:30:00Z,30.2583,-88.2131,3.671,9.76,1111122 
DISL,ioos:station:DISL:KATA:1,2019-03-06T15:30:00Z,30.2583,-88.2131,3.734,10.05,1111122 
DISL,ioos:station:DISL:KATA:1,2019-03-06T16:30:00Z,30.2583,-88.2131,3.778,7.84,1111122 
DISL,ioos:station:DISL:KATA:1,2019-03-06T17:30:00Z,30.2583,-88.2131,3.825,7.03,1111122 
DISL,ioos:station:DISL:KATA:1,2019-03-06T18:30:00Z,30.2583,-88.2131,3.854,6.92,1111122 
DISL,ioos:station:DISL:KATA:1,2019-03-06T19:30:00Z,30.2583,-88.2131,3.87,7.14,1111122 
DISL,ioos:station:DISL:KATA:1,2019-03-06T20:30:00Z,30.2583,-88.2131,3.863,6.29,1111122 
DISL,ioos:station:DISL:KATA:1,2019-03-06T21:30:00Z,30.2583,-88.2131,3.867,5.01,1111122 
DISL,ioos:station:DISL:KATA:1,2019-03-06T22:30:00Z,30.2583,-88.2131,3.896,4.85,1111122 
DISL,ioos:station:DISL:KATA:1,2019-03-06T23:00:00Z,30.2583,-88.2131,3.919,4.65,1111122 
DISL,ioos:station:DISL:KATA:1,2019-03-06T23:30:00Z,30.2583,-88.2131,3.948,4.79,1111122 
DISL,ioos:station:DISL:KATA:1,2019-03-07T13:30:00Z,30.2583,-88.2131,3.755,6.6,1111122 
DISL,ioos:station:DISL:KATA:1,2019-03-07T14:30:00Z,30.2583,-88.2131,3.802,6.39,1111122 
DISL,ioos:station:DISL:KATA:1,2019-03-07T15:30:00Z,30.2583,-88.2131,3.837,6.5,1111122 
DISL,ioos:station:DISL:KATA:1,2019-03-07T16:30:00Z,30.2583,-88.2131,3.865,6.6,1111122 
DISL,ioos:station:DISL:KATA:1,2019-03-07T17:30:00Z,30.2583,-88.2131,3.877,6.38,1111122 
DISL,ioos:station:DISL:KATA:1,2019-03-07T18:30:00Z,30.2583,-88.2131,3.881,6.51,1111122 
DISL,ioos:station:DISL:KATA:1,2019-03-07T19:30:00Z,30.2583,-88.2131,3.92,6.63,1111122 
DISL,ioos:station:DISL:KATA:1,2019-03-07T20:30:00Z,30.2583,-88.2131,3.952,6.93,1111122 
DISL,ioos:station:DISL:KATA:1,2019-03-07T21:30:00Z,30.2583,-88.2131,3.954,6.86,1111122 
DISL,ioos:station:DISL:KATA:1,2019-03-07T22:30:00Z,30.2583,-88.2131,3.947,6.64,1111122 
DISL,ioos:station:DISL:KATA:1,2019-03-07T23:30:00Z,30.2583,-88.2131,3.96,7.11,1111122 
DISL,ioos:station:DISL:KATA:1,2019-03-08T00:30:00Z,30.2583,-88.2131,4.002,7.07,1111122 
DISL,ioos:station:DISL:KATA:1,2019-03-08T01:00:00Z,30.2583,-88.2131,4.026,6.9,1111122 
DISL,ioos:station:DISL:KATA:1,2019-03-09T17:30:00Z,30.2583,-88.2131,4.247,6.02,1111122 
DISL,ioos:station:DISL:KATA:1,2019-03-09T18:30:00Z,30.2583,-88.2131,4.24,5.55,1111122 
DISL,ioos:station:DISL:KATA:1,2019-03-09T19:30:00Z,30.2583,-88.2131,4.228,5.6,1111122 
DISL,ioos:station:DISL:KATA:1,2019-03-10T16:30:00Z,30.2583,-88.2131,4.325,4.65,1111122 
DISL,ioos:station:DISL:KATA:1,2019-03-10T17:30:00Z,30.2583,-88.2131,4.32,4.35,1111122 
DISL,ioos:station:DISL:KATA:1,2019-03-10T18:30:00Z,30.2583,-88.2131,4.283,4.5,1111122 
DISL,ioos:station:DISL:KATA:1,2019-03-10T19:30:00Z,30.2583,-88.2131,4.254,4.79,1111122 
DISL,ioos:station:DISL:KATA:1,2019-03-10T20:30:00Z,30.2583,-88.2131,4.232,4.79,1111122 
DISL,ioos:station:DISL:KATA:1,2019-03-10T21:00:00Z,30.2583,-88.2131,4.213,4.82,1111122 
DISL,ioos:station:DISL:KATA:1,2019-03-10T22:00:00Z,30.2583,-88.2131,4.162,5.2,1111122 
DISL,ioos:station:DISL:KATA:1,2019-03-12T16:30:00Z,30.2583,-88.2131,4.23,4.37,1111122 
DISL,ioos:station:DISL:KATA:1,2019-03-12T17:30:00Z,30.2583,-88.2131,4.283,4.5,1111122 
DISL,ioos:station:DISL:KATA:1,2019-03-12T18:30:00Z,30.2583,-88.2131,4.306,4.62,1111122 
DISL,ioos:station:DISL:KATA:1,2019-03-12T19:30:00Z,30.2583,-88.2131,4.303,4.04,1111122 
DISL,ioos:station:DISL:KATA:1,2019-03-12T20:00:00Z,30.2583,-88.2131,4.311,3.71,1111122 
DISL,ioos:station:DISL:KATA:1,2019-03-17T18:30:00Z,30.2583,-88.2131,4.181,6.25,1111122 
DISL,ioos:station:DISL:KATA:1,2019-03-17T19:00:00Z,30.2583,-88.2131,4.205,6.3,1111122 
DISL,ioos:station:DISL:KATA:1,2019-03-19T15:30:00Z,30.2583,-88.2131,3.881,4.94,1111122 
DISL,ioos:station:DISL:KATA:1,2019-03-19T16:30:00Z,30.2583,-88.2131,3.931,4.84,1111122 
DISL,ioos:station:DISL:KATA:1,2019-03-19T17:30:00Z,30.2583,-88.2131,3.988,5.08,1111122 
DISL,ioos:station:DISL:KATA:1,2019-03-19T18:30:00Z,30.2583,-88.2131,4.048,4.69,1111122 
DISL,ioos:station:DISL:KATA:1,2019-03-19T19:30:00Z,30.2583,-88.2131,4.074,4.61,1111122 
DISL,ioos:station:DISL:KATA:1,2019-03-19T20:30:00Z,30.2583,-88.2131,4.057,4.39,1111122 
DISL,ioos:station:DISL:KATA:1,2019-03-19T21:30:00Z,30.2583,-88.2131,4.043,4.98,1111122 
DISL,ioos:station:DISL:KATA:1,2019-03-19T22:00:00Z,30.2583,-88.2131,4.058,5.15,1111122 
DISL,ioos:station:DISL:KATA:1,2019-03-20T15:30:00Z,30.2583,-88.2131,3.898,4.4,1111122 
DISL,ioos:station:DISL:KATA:1,2019-03-20T16:30:00Z,30.2583,-88.2131,3.954,4.84,1111122 
DISL,ioos:station:DISL:KATA:1,2019-03-20T17:30:00Z,30.2583,-88.2131,4.02,4.85,1111122 
DISL,ioos:station:DISL:KATA:1,2019-03-20T18:30:00Z,30.2583,-88.2131,4.069,4.92,1111122 
DISL,ioos:station:DISL:KATA:1,2019-03-20T19:30:00Z,30.2583,-88.2131,4.064,5.43,1111122 
DISL,ioos:station:DISL:KATA:1,2019-03-20T20:30:00Z,30.2583,-88.2131,4.029,5.41,1111122 
DISL,ioos:station:DISL:KATA:1,2019-03-20T21:30:00Z,30.2583,-88.2131,4.007,5.25,1111122 
DISL,ioos:station:DISL:KATA:1,2019-03-20T22:30:00Z,30.2583,-88.2131,4.027,4.83,1111122 
DISL,ioos:station:DISL:KATA:1,2019-03-20T23:00:00Z,30.2583,-88.2131,4.05,5.0,1111122 
DISL,ioos:station:DISL:KATA:1,2019-03-20T23:30:00Z,30.2583,-88.2131,4.083,5.65,1111122 
DISL,ioos:station:DISL:KATA:1,2019-03-21T13:30:00Z,30.2583,-88.2131,3.859,5.26,1111122 
DISL,ioos:station:DISL:KATA:1,2019-03-21T14:30:00Z,30.2583,-88.2131,3.887,5.65,1111122 
DISL,ioos:station:DISL:KATA:1,2019-03-21T15:30:00Z,30.2583,-88.2131,3.981,5.11,1111122 
DISL,ioos:station:DISL:KATA:1,2019-03-21T16:30:00Z,30.2583,-88.2131,4.022,4.72,1111122 
DISL,ioos:station:DISL:KATA:1,2019-03-21T17:30:00Z,30.2583,-88.2131,4.033,4.52,1111122 
DISL,ioos:station:DISL:KATA:1,2019-03-21T18:30:00Z,30.2583,-88.2131,4.041,4.27,1111122 
DISL,ioos:station:DISL:KATA:1,2019-03-21T19:30:00Z,30.2583,-88.2131,4.071,5.66,1111122 
DISL,ioos:station:DISL:KATA:1,2019-03-21T20:30:00Z,30.2583,-88.2131,4.099,6.81,1111122 
DISL,ioos:station:DISL:KATA:1,2019-03-21T21:30:00Z,30.2583,-88.2131,4.026,5.61,1111122 
DISL,ioos:station:DISL:KATA:1,2019-03-21T22:30:00Z,30.2583,-88.2131,4.047,5.22,1111122 
DISL,ioos:station:DISL:KATA:1,2019-03-21T23:30:00Z,30.2583,-88.2131,4.024,5.77,1111122 
DISL,ioos:station:DISL:KATA:1,2019-03-22T00:30:00Z,30.2583,-88.2131,4.002,5.05,1111122 
DISL,ioos:station:DISL:KATA:1,2019-03-22T01:30:00Z,30.2583,-88.2131,3.998,5.41,1111122 
DISL,ioos:station:DISL:KATA:1,2019-03-22T02:30:00Z,30.2583,-88.2131,3.983,5.37,1111122 
DISL,ioos:station:DISL:KATA:1,2019-03-22T03:30:00Z,30.2583,-88.2131,3.981,4.43,1111122 
DISL,ioos:station:DISL:KATA:1,2019-03-22T04:30:00Z,30.2583,-88.2131,3.988,3.32,1111122 
DISL,ioos:station:DISL:KATA:1,2019-03-22T05:30:00Z,30.2583,-88.2131,3.999,2.21,1111122 
DISL,ioos:station:DISL:KATA:1,2019-03-22T06:30:00Z,30.2583,-88.2131,4.029,2.57,1111122 
DISL,ioos:station:DISL:KATA:1,2019-03-22T07:00:00Z,30.2583,-88.2131,4.041,2.74,1111122 
DISL,ioos:station:DISL:KATA:1,2019-03-22T12:30:00Z,30.2583,-88.2131,3.812,1.65,1111122 
DISL,ioos:station:DISL:KATA:1,2019-03-22T13:30:00Z,30.2583,-88.2131,3.844,4.56,1111122 
DISL,ioos:station:DISL:KATA:1,2019-03-22T14:30:00Z,30.2583,-88.2131,3.913,2.77,1111122 
DISL,ioos:station:DISL:KATA:1,2019-03-22T15:30:00Z,30.2583,-88.2131,3.974,3.07,1111122 
DISL,ioos:station:DISL:KATA:1,2019-03-22T16:30:00Z,30.2583,-88.2131,3.982,4.31,1111122 
DISL,ioos:station:DISL:KATA:1,2019-03-22T17:30:00Z,30.2583,-88.2131,4.004,4.16,1111122 
DISL,ioos:station:DISL:KATA:1,2019-03-22T18:30:00Z,30.2583,-88.2131,4.051,4.07,1111122 
DISL,ioos:station:DISL:KATA:1,2019-03-22T19:30:00Z,30.2583,-88.2131,4.101,4.26,1111122 
DISL,ioos:station:DISL:KATA:1,2019-03-22T20:30:00Z,30.2583,-88.2131,4.102,4.76,1111122 
DISL,ioos:station:DISL:KATA:1,2019-03-22T21:30:00Z,30.2583,-88.2131,4.039,4.46,1111122 
DISL,ioos:station:DISL:KATA:1,2019-03-22T22:30:00Z,30.2583,-88.2131,3.942,3.8,1111122 
DISL,ioos:station:DISL:KATA:1,2019-03-22T23:30:00Z,30.2583,-88.2131,3.892,4.14,1111122 
DISL,ioos:station:DISL:KATA:1,2019-03-23T00:30:00Z,30.2583,-88.2131,3.894,6.48,1111122 
DISL,ioos:station:DISL:KATA:1,2019-03-23T01:30:00Z,30.2583,-88.2131,3.918,6.14,1111122 
DISL,ioos:station:DISL:KATA:1,2019-03-23T02:30:00Z,30.2583,-88.2131,3.957,4.3,1111122 
DISL,ioos:station:DISL:KATA:1,2019-03-23T03:30:00Z,30.2583,-88.2131,3.961,3.05,1111122 
DISL,ioos:station:DISL:KATA:1,2019-03-23T04:30:00Z,30.2583,-88.2131,3.946,3.96,1111122 
DISL,ioos:station:DISL:KATA:1,2019-03-23T05:30:00Z,30.2583,-88.2131,3.941,3.8,1111122 
DISL,ioos:station:DISL:KATA:1,2019-03-23T06:30:00Z,30.2583,-88.2131,3.959,2.81,1111122 
DISL,ioos:station:DISL:KATA:1,2019-03-23T07:30:00Z,30.2583,-88.2131,4.013,2.48,1111122 
DISL,ioos:station:DISL:KATA:1,2019-03-23T08:30:00Z,30.2583,-88.2131,4.047,2.34,1111122 
DISL,ioos:station:DISL:KATA:1,2019-03-23T09:30:00Z,30.2583,-88.2131,4.052,3.13,1111122 
DISL,ioos:station:DISL:KATA:1,2019-03-23T10:30:00Z,30.2583,-88.2131,4.022,3.98,1111122 
DISL,ioos:station:DISL:KATA:1,2019-03-23T11:30:00Z,30.2583,-88.2131,3.99,1.85,1111122 
DISL,ioos:station:DISL:KATA:1,2019-03-23T12:30:00Z,30.2583,-88.2131,4.015,1.62,1111122 
DISL,ioos:station:DISL:KATA:1,2019-03-23T13:30:00Z,30.2583,-88.2131,4.071,2.53,1111122 
DISL,ioos:station:DISL:KATA:1,2019-03-23T14:30:00Z,30.2583,-88.2131,4.137,1.86,1111122 
DISL,ioos:station:DISL:KATA:1,2019-03-23T15:30:00Z,30.2583,-88.2131,4.176,3.59,1111122 
DISL,ioos:station:DISL:KATA:1,2019-03-23T16:30:00Z,30.2583,-88.2131,4.169,3.42,1111122 
DISL,ioos:station:DISL:KATA:1,2019-03-23T17:30:00Z,30.2583,-88.2131,4.158,2.67,1111122 
DISL,ioos:station:DISL:KATA:1,2019-03-23T18:30:00Z,30.2583,-88.2131,4.141,2.99,1111122 
DISL,ioos:station:DISL:KATA:1,2019-03-23T19:30:00Z,30.2583,-88.2131,4.173,2.58,1111122 
DISL,ioos:station:DISL:KATA:1,2019-03-23T20:30:00Z,30.2583,-88.2131,4.194,3.62,1111122 
DISL,ioos:station:DISL:KATA:1,2019-03-23T21:30:00Z,30.2583,-88.2131,4.144,2.36,1111122 
DISL,ioos:station:DISL:KATA:1,2019-03-23T22:30:00Z,30.2583,-88.2131,4.063,2.62,1111122 
DISL,ioos:station:DISL:KATA:1,2019-03-23T23:30:00Z,30.2583,-88.2131,3.986,4.02,1111122 
DISL,ioos:station:DISL:KATA:1,2019-03-24T00:30:00Z,30.2583,-88.2131,3.938,5.02,1111122 
DISL,ioos:station:DISL:KATA:1,2019-03-24T01:30:00Z,30.2583,-88.2131,3.912,4.11,1111122 
DISL,ioos:station:DISL:KATA:1,2019-03-24T02:30:00Z,30.2583,-88.2131,3.921,1.69,1111122 
DISL,ioos:station:DISL:KATA:1,2019-03-24T03:30:00Z,30.2583,-88.2131,3.943,1.91,1111122 
DISL,ioos:station:DISL:KATA:1,2019-03-24T04:30:00Z,30.2583,-88.2131,3.944,3.03,1111122 
DISL,ioos:station:DISL:KATA:1,2019-03-24T05:30:00Z,30.2583,-88.2131,3.934,2.1,1111122 
DISL,ioos:station:DISL:KATA:1,2019-03-24T06:30:00Z,30.2583,-88.2131,3.942,3.72,1111122 
DISL,ioos:station:DISL:KATA:1,2019-03-24T07:30:00Z,30.2583,-88.2131,3.98,3.07,1111122 
DISL,ioos:station:DISL:KATA:1,2019-03-24T08:30:00Z,30.2583,-88.2131,4.025,3.2,1111122 
DISL,ioos:station:DISL:KATA:1,2019-03-24T09:30:00Z,30.2583,-88.2131,4.047,3.08,1111122 
DISL,ioos:station:DISL:KATA:1,2019-03-24T10:30:00Z,30.2583,-88.2131,4.047,2.96,1111122 
DISL,ioos:station:DISL:KATA:1,2019-03-24T11:30:00Z,30.2583,-88.2131,4.04,4.0,1111122 
DISL,ioos:station:DISL:KATA:1,2019-03-24T12:30:00Z,30.2583,-88.2131,4.055,3.43,1111122 
DISL,ioos:station:DISL:KATA:1,2019-03-24T13:30:00Z,30.2583,-88.2131,4.074,3.76,1111122 
DISL,ioos:station:DISL:KATA:1,2019-03-24T14:30:00Z,30.2583,-88.2131,4.099,4.02,1111122 
DISL,ioos:station:DISL:KATA:1,2019-03-24T15:30:00Z,30.2583,-88.2131,4.142,5.15,1111122 
DISL,ioos:station:DISL:KATA:1,2019-03-24T16:30:00Z,30.2583,-88.2131,4.19,5.52,1111122 
DISL,ioos:station:DISL:KATA:1,2019-03-24T17:30:00Z,30.2583,-88.2131,4.224,5.5,1111122 
DISL,ioos:station:DISL:KATA:1,2019-03-24T18:30:00Z,30.2583,-88.2131,4.219,6.78,1111122 
DISL,ioos:station:DISL:KATA:1,2019-03-24T19:30:00Z,30.2583,-88.2131,4.202,6.63,1111122 
DISL,ioos:station:DISL:KATA:1,2019-03-24T20:30:00Z,30.2583,-88.2131,4.18,6.77,1111122 
DISL,ioos:station:DISL:KATA:1,2019-03-24T21:30:00Z,30.2583,-88.2131,4.174,5.5,1111122 
DISL,ioos:station:DISL:KATA:1,2019-03-24T22:30:00Z,30.2583,-88.2131,4.143,4.1,1111122 
DISL,ioos:station:DISL:KATA:1,2019-03-24T23:30:00Z,30.2583,-88.2131,4.08,5.88,1111122 
DISL,ioos:station:DISL:KATA:1,2019-03-25T00:30:00Z,30.2583,-88.2131,4.018,6.92,1111122 
DISL,ioos:station:DISL:KATA:1,2019-03-25T01:30:00Z,30.2583,-88.2131,3.963,6.93,1111122 
DISL,ioos:station:DISL:KATA:1,2019-03-25T02:30:00Z,30.2583,-88.2131,3.947,7.22,1111122 
DISL,ioos:station:DISL:KATA:1,2019-03-25T03:30:00Z,30.2583,-88.2131,3.965,4.25,1111122 
DISL,ioos:station:DISL:KATA:1,2019-03-25T04:30:00Z,30.2583,-88.2131,3.99,4.87,1111122 
DISL,ioos:station:DISL:KATA:1,2019-03-25T05:30:00Z,30.2583,-88.2131,4.013,5.13,1111122 
DISL,ioos:station:DISL:KATA:1,2019-03-25T06:30:00Z,30.2583,-88.2131,4.032,3.22,1111122 
DISL,ioos:station:DISL:KATA:1,2019-03-25T07:30:00Z,30.2583,-88.2131,4.05,2.88,1111122 
DISL,ioos:station:DISL:KATA:1,2019-03-25T08:30:00Z,30.2583,-88.2131,4.078,2.88,1111122 
DISL,ioos:station:DISL:KATA:1,2019-03-25T09:30:00Z,30.2583,-88.2131,4.139,3.64,1111122 
DISL,ioos:station:DISL:KATA:1,2019-03-25T10:30:00Z,30.2583,-88.2131,4.192,3.05,1111122 
DISL,ioos:station:DISL:KATA:1,2019-03-25T11:30:00Z,30.2583,-88.2131,4.222,2.58,1111122 
DISL,ioos:station:DISL:KATA:1,2019-03-25T12:30:00Z,30.2583,-88.2131,4.23,2.64,1111122 
DISL,ioos:station:DISL:KATA:1,2019-03-25T13:30:00Z,30.2583,-88.2131,4.248,2.33,1111122 
DISL,ioos:station:DISL:KATA:1,2019-03-25T14:30:00Z,30.2583,-88.2131,4.297,2.66,1111122 
DISL,ioos:station:DISL:KATA:1,2019-03-25T15:30:00Z,30.2583,-88.2131,4.358,2.13,1111122 
DISL,ioos:station:DISL:KATA:1,2019-03-25T16:30:00Z,30.2583,-88.2131,4.392,2.18,1111122 
DISL,ioos:station:DISL:KATA:1,2019-03-25T17:30:00Z,30.2583,-88.2131,4.412,2.36,1111122 
DISL,ioos:station:DISL:KATA:1,2019-03-25T18:30:00Z,30.2583,-88.2131,4.385,1.45,1111122 
DISL,ioos:station:DISL:KATA:1,2019-03-25T19:30:00Z,30.2583,-88.2131,4.362,1.98,1111122 
DISL,ioos:station:DISL:KATA:1,2019-03-25T20:30:00Z,30.2583,-88.2131,4.339,3.01,1111122 
DISL,ioos:station:DISL:KATA:1,2019-03-25T21:30:00Z,30.2583,-88.2131,4.318,3.86,1111122 
DISL,ioos:station:DISL:KATA:1,2019-03-25T22:30:00Z,30.2583,-88.2131,4.27,3.77,1111122 
DISL,ioos:station:DISL:KATA:1,2019-03-25T23:30:00Z,30.2583,-88.2131,4.207,4.51,1111122 
DISL,ioos:station:DISL:KATA:1,2019-03-26T00:30:00Z,30.2583,-88.2131,4.157,4.54,1111122 
DISL,ioos:station:DISL:KATA:1,2019-03-26T01:30:00Z,30.2583,-88.2131,4.098,5.24,1111122 
DISL,ioos:station:DISL:KATA:1,2019-03-26T02:30:00Z,30.2583,-88.2131,4.043,6.41,1111122 
DISL,ioos:station:DISL:KATA:1,2019-03-26T03:30:00Z,30.2583,-88.2131,3.988,6.99,1111122 
DISL,ioos:station:DISL:KATA:1,2019-03-26T04:30:00Z,30.2583,-88.2131,3.956,6.02,1111122 
DISL,ioos:station:DISL:KATA:1,2019-03-26T05:30:00Z,30.2583,-88.2131,3.87,6.13,1111122 
DISL,ioos:station:DISL:KATA:1,2019-03-26T06:30:00Z,30.2583,-88.2131,3.814,6.32,1111122 
DISL,ioos:station:DISL:KATA:1,2019-03-26T07:30:00Z,30.2583,-88.2131,3.787,6.01,1111122 
DISL,ioos:station:DISL:KATA:1,2019-03-26T08:30:00Z,30.2583,-88.2131,3.763,5.6,1111122 
DISL,ioos:station:DISL:KATA:1,2019-03-26T09:30:00Z,30.2583,-88.2131,3.811,6.28,1111122 
DISL,ioos:station:DISL:KATA:1,2019-03-26T10:30:00Z,30.2583,-88.2131,3.899,5.13,1111122 
DISL,ioos:station:DISL:KATA:1,2019-03-26T11:30:00Z,30.2583,-88.2131,3.995,5.49,1111122 
DISL,ioos:station:DISL:KATA:1,2019-03-26T12:30:00Z,30.2583,-88.2131,4.038,5.08,1111122 
DISL,ioos:station:DISL:KATA:1,2019-03-26T13:30:00Z,30.2583,-88.2131,4.068,5.36,1111122 
DISL,ioos:station:DISL:KATA:1,2019-03-26T14:30:00Z,30.2583,-88.2131,4.107,5.64,1111122 
DISL,ioos:station:DISL:KATA:1,2019-03-26T15:30:00Z,30.2583,-88.2131,4.161,5.34,1111122 
DISL,ioos:station:DISL:KATA:1,2019-03-26T16:30:00Z,30.2583,-88.2131,4.246,4.9,1111122 
DISL,ioos:station:DISL:KATA:1,2019-03-26T17:30:00Z,30.2583,-88.2131,4.343,5.69,1111122 
DISL,ioos:station:DISL:KATA:1,2019-03-26T18:30:00Z,30.2583,-88.2131,4.383,4.85,1111122 
DISL,ioos:station:DISL:KATA:1,2019-03-26T19:30:00Z,30.2583,-88.2131,4.396,5.56,1111122 
DISL,ioos:station:DISL:KATA:1,2019-03-26T20:30:00Z,30.2583,-88.2131,4.358,5.09,1111122 
DISL,ioos:station:DISL:KATA:1,2019-03-26T21:30:00Z,30.2583,-88.2131,4.259,4.5,1111122 
DISL,ioos:station:DISL:KATA:1,2019-03-26T22:30:00Z,30.2583,-88.2131,4.171,5.71,1111122 
DISL,ioos:station:DISL:KATA:1,2019-03-26T23:30:00Z,30.2583,-88.2131,4.138,6.0,1111122 
DISL,ioos:station:DISL:KATA:1,2019-03-27T00:30:00Z,30.2583,-88.2131,4.045,5.44,1111122 
DISL,ioos:station:DISL:KATA:1,2019-03-27T01:30:00Z,30.2583,-88.2131,3.981,5.59,1111122 
DISL,ioos:station:DISL:KATA:1,2019-03-27T02:30:00Z,30.2583,-88.2131,3.946,5.36,1111122 
DISL,ioos:station:DISL:KATA:1,2019-03-27T03:30:00Z,30.2583,-88.2131,3.859,6.7,1111122 
DISL,ioos:station:DISL:KATA:1,2019-03-27T04:30:00Z,30.2583,-88.2131,3.81,6.22,1111122 
DISL,ioos:station:DISL:KATA:1,2019-03-27T05:30:00Z,30.2583,-88.2131,3.793,5.62,1111122 
DISL,ioos:station:DISL:KATA:1,2019-03-27T06:30:00Z,30.2583,-88.2131,3.778,6.41,1111122 
DISL,ioos:station:DISL:KATA:1,2019-03-27T07:30:00Z,30.2583,-88.2131,3.777,6.21,1111122 
DISL,ioos:station:DISL:KATA:1,2019-03-27T08:30:00Z,30.2583,-88.2131,3.752,6.38,1111122 
DISL,ioos:station:DISL:KATA:1,2019-03-27T09:30:00Z,30.2583,-88.2131,3.747,6.24,1111122 
DISL,ioos:station:DISL:KATA:1,2019-03-27T10:30:00Z,30.2583,-88.2131,3.76,6.11,1111122 
DISL,ioos:station:DISL:KATA:1,2019-03-27T11:30:00Z,30.2583,-88.2131,3.813,4.53,1111122 
DISL,ioos:station:DISL:KATA:1,2019-03-27T12:30:00Z,30.2583,-88.2131,3.889,5.17,1111122 
DISL,ioos:station:DISL:KATA:1,2019-03-27T13:30:00Z,30.2583,-88.2131,3.948,5.3,1111122 
DISL,ioos:station:DISL:KATA:1,2019-03-27T14:30:00Z,30.2583,-88.2131,4.017,4.69,1111122 
DISL,ioos:station:DISL:KATA:1,2019-03-27T15:30:00Z,30.2583,-88.2131,4.079,5.61,1111122 
DISL,ioos:station:DISL:KATA:1,2019-03-27T16:30:00Z,30.2583,-88.2131,4.159,5.46,1111122 
DISL,ioos:station:DISL:KATA:1,2019-03-27T17:30:00Z,30.2583,-88.2131,4.228,5.97,1111122 
DISL,ioos:station:DISL:KATA:1,2019-03-27T18:30:00Z,30.2583,-88.2131,4.299,5.02,1111122 
DISL,ioos:station:DISL:KATA:1,2019-03-27T19:30:00Z,30.2583,-88.2131,4.35,6.89,1111122 
DISL,ioos:station:DISL:KATA:1,2019-03-27T20:30:00Z,30.2583,-88.2131,4.356,5.22,1111122 
DISL,ioos:station:DISL:KATA:1,2019-03-27T21:30:00Z,30.2583,-88.2131,4.322,5.03,1111122 
DISL,ioos:station:DISL:KATA:1,2019-03-27T22:30:00Z,30.2583,-88.2131,4.274,5.94,1111122 
DISL,ioos:station:DISL:KATA:1,2019-03-27T23:30:00Z,30.2583,-88.2131,4.229,5.64,1111122 
DISL,ioos:station:DISL:KATA:1,2019-03-28T00:30:00Z,30.2583,-88.2131,4.166,5.33,1111122 
DISL,ioos:station:DISL:KATA:1,2019-03-28T01:30:00Z,30.2583,-88.2131,4.085,4.56,1111122 
DISL,ioos:station:DISL:KATA:1,2019-03-28T02:30:00Z,30.2583,-88.2131,4.018,5.29,1111122 
DISL,ioos:station:DISL:KATA:1,2019-03-28T03:30:00Z,30.2583,-88.2131,3.941,5.79,1111122 
DISL,ioos:station:DISL:KATA:1,2019-03-28T04:30:00Z,30.2583,-88.2131,3.881,5.29,1111122 
DISL,ioos:station:DISL:KATA:1,2019-03-28T05:30:00Z,30.2583,-88.2131,3.817,6.41,1111122 
DISL,ioos:station:DISL:KATA:1,2019-03-28T06:30:00Z,30.2583,-88.2131,3.763,6.49,1111122 
DISL,ioos:station:DISL:KATA:1,2019-03-28T07:30:00Z,30.2583,-88.2131,3.721,5.68,1111122 
DISL,ioos:station:DISL:KATA:1,2019-03-28T08:30:00Z,30.2583,-88.2131,3.719,4.53,1111122 
DISL,ioos:station:DISL:KATA:1,2019-03-28T09:30:00Z,30.2583,-88.2131,3.748,4.66,1111122 
DISL,ioos:station:DISL:KATA:1,2019-03-28T10:30:00Z,30.2583,-88.2131,3.773,5.57,1111122 
DISL,ioos:station:DISL:KATA:1,2019-03-28T11:30:00Z,30.2583,-88.2131,3.788,6.26,1111122 
DISL,ioos:station:DISL:KATA:1,2019-03-28T12:30:00Z,30.2583,-88.2131,3.849,5.64,1111122 
DISL,ioos:station:DISL:KATA:1,2019-03-28T13:30:00Z,30.2583,-88.2131,3.903,2.61,1111122 
DISL,ioos:station:DISL:KATA:1,2019-03-28T14:30:00Z,30.2583,-88.2131,3.972,3.04,1111122 
DISL,ioos:station:DISL:KATA:1,2019-03-28T15:30:00Z,30.2583,-88.2131,4.034,3.03,1111122 
DISL,ioos:station:DISL:KATA:1,2019-03-28T16:30:00Z,30.2583,-88.2131,4.093,3.12,1111122 
DISL,ioos:station:DISL:KATA:1,2019-03-28T17:30:00Z,30.2583,-88.2131,4.154,3.18,1111122 
DISL,ioos:station:DISL:KATA:1,2019-03-28T18:30:00Z,30.2583,-88.2131,4.204,4.18,1111122 
DISL,ioos:station:DISL:KATA:1,2019-03-28T19:30:00Z,30.2583,-88.2131,4.249,3.53,1111122 
DISL,ioos:station:DISL:KATA:1,2019-03-28T20:30:00Z,30.2583,-88.2131,4.276,3.66,1111122 
DISL,ioos:station:DISL:KATA:1,2019-03-28T21:30:00Z,30.2583,-88.2131,4.294,3.62,1111122 
DISL,ioos:station:DISL:KATA:1,2019-03-28T22:30:00Z,30.2583,-88.2131,4.289,3.27,1111122 
DISL,ioos:station:DISL:KATA:1,2019-03-28T23:30:00Z,30.2583,-88.2131,4.252,2.47,1111122 
DISL,ioos:station:DISL:KATA:1,2019-03-29T00:30:00Z,30.2583,-88.2131,4.209,3.87,1111122 
DISL,ioos:station:DISL:KATA:1,2019-03-29T01:30:00Z,30.2583,-88.2131,4.155,2.08,1111122 
DISL,ioos:station:DISL:KATA:1,2019-03-29T02:30:00Z,30.2583,-88.2131,4.092,2.29,1111122 